When you browse on this site, cookies collect data to enhance your experience and personalize the content and advertising you see.
Visit our Privacy Policy to learn more. By continuing to use the site, you agree to this use of cookies and data.
  • In Hungary
  • List of Countries
  • For 7 days
  • Water Temperature
  • Weather Map
  • News
  • Weather Widgets
  • user-avatar
    Login

    Hourly Weather Tonala

    Today, 22 November, Friday

    Time Temperature Precipitation Wind Pressure Humidity
    00:00 +25°C° 0 mm 1 mps 756 mmHg 88%
    01:00 +25°C° 0 mm 1 mps 755 mmHg 88%
    02:00 +25°C° 0 mm 1 mps 755 mmHg 88%
    03:00 +25°C° 0 mm 1 mps 755 mmHg 88%
    04:00 +25°C° 0 mm 1 mps 755 mmHg 87%
    05:00 +25°C° 0 mm 1 mps 755 mmHg 87%
    06:00 +25°C° 0 mm 1 mps 755 mmHg 87%
    07:00 +27°C° 0 mm 1 mps 755 mmHg 80%
    08:00 +29°C° 0 mm 1 mps 756 mmHg 72%
    09:00 +31°C° 0 mm 1 mps 756 mmHg 65%
    10:00 +32°C° 0 mm 1 mps 756 mmHg 62%
    11:00 +34°C° 0 mm 2 mps 755 mmHg 58%
    12:00 +35°C° 0 mm 2 mps 755 mmHg 54%
    13:00 +34°C° 0 mm 2 mps 754 mmHg 57%
    14:00 +34°C° 0 mm 2 mps 753 mmHg 59%
    15:00 +32°C° 0 mm 2 mps 753 mmHg 62%
    16:00 +30°C° 0 mm 1 mps 753 mmHg 70%
    17:00 +29°C° 0 mm 1 mps 753 mmHg 78%
    18:00 +25°C° 0 mm 0 mps 754 mmHg 85%
    19:00 +25°C° 0 mm 0 mps 754 mmHg 86%
    20:00 +24°C° 0 mm 0 mps 755 mmHg 86%
    21:00 +24°C° 0 mm 0 mps 756 mmHg 87%
    22:00 +26°C° 0 mm 1 mps 756 mmHg 86%
    23:00 +25°C° 0 mm 1 mps 755 mmHg 85%

    Tomorrow, 23 November, Saturday

    Time Temperature Precipitation Wind Pressure Humidity
    00:00 +25°C° 0 mm 1 mps 755 mmHg 85%
    01:00 +25°C° 0 mm 1 mps 755 mmHg 85%
    02:00 +25°C° 0 mm 1 mps 755 mmHg 84%
    03:00 +25°C° 0 mm 1 mps 754 mmHg 84%
    04:00 +25°C° 0 mm 1 mps 755 mmHg 83%
    05:00 +24°C° 0 mm 1 mps 755 mmHg 82%
    06:00 +24°C° 0 mm 1 mps 755 mmHg 81%
    07:00 +26°C° 0 mm 1 mps 756 mmHg 73%
    08:00 +28°C° 0 mm 1 mps 756 mmHg 66%
    09:00 +31°C° 0 mm 1 mps 757 mmHg 59%
    10:00 +32°C° 0 mm 2 mps 756 mmHg 56%
    11:00 +34°C° 0 mm 2 mps 756 mmHg 54%
    12:00 +36°C° 0 mm 3 mps 755 mmHg 51%
    13:00 +35°C° 0 mm 3 mps 754 mmHg 52%
    14:00 +35°C° 0 mm 3 mps 754 mmHg 54%
    15:00 +35°C° 0 mm 2 mps 753 mmHg 55%
    16:00 +32°C° 0 mm 2 mps 753 mmHg 63%
    17:00 +30°C° 0 mm 1 mps 754 mmHg 71%
    18:00 +28°C° 0 mm 1 mps 754 mmHg 79%
    19:00 +28°C° 0 mm 1 mps 755 mmHg 81%
    20:00 +27°C° 0 mm 1 mps 755 mmHg 83%
    21:00 +27°C° 0 mm 2 mps 756 mmHg 85%
    22:00 +27°C° 0 mm 2 mps 756 mmHg 86%
    23:00 +26°C° 0 mm 2 mps 756 mmHg 86%

    Day after tomorrow, 24 November, Sunday

    Time Temperature Precipitation Wind Pressure Humidity
    00:00 +26°C° 0 mm 2 mps 756 mmHg 87%
    01:00 +26°C° 0 mm 2 mps 755 mmHg 86%
    02:00 +26°C° 0 mm 2 mps 755 mmHg 85%
    03:00 +26°C° 0 mm 2 mps 755 mmHg 85%
    04:00 +26°C° 0 mm 2 mps 755 mmHg 84%
    05:00 +26°C° 0 mm 3 mps 755 mmHg 84%
    06:00 +26°C° 0 mm 3 mps 755 mmHg 84%
    07:00 +27°C° 0 mm 2 mps 756 mmHg 78%
    08:00 +29°C° 0 mm 2 mps 756 mmHg 72%
    09:00 +30°C° 0 mm 2 mps 756 mmHg 66%
    10:00 +32°C° 0 mm 2 mps 756 mmHg 62%
    11:00 +34°C° 0 mm 3 mps 755 mmHg 58%
    12:00 +35°C° 0 mm 3 mps 755 mmHg 54%
    13:00 +35°C° 0 mm 3 mps 754 mmHg 55%
    14:00 +34°C° 0 mm 3 mps 753 mmHg 56%
    15:00 +34°C° 0 mm 4 mps 753 mmHg 57%
    16:00 +31°C° 0 mm 3 mps 753 mmHg 64%
    17:00 +30°C° 0 mm 3 mps 753 mmHg 71%
    18:00 +28°C° 0 mm 3 mps 753 mmHg 78%
    19:00 +28°C° 0 mm 3 mps 754 mmHg 79%
    20:00 +27°C° 0 mm 3 mps 754 mmHg 80%
    21:00 +26°C° 0 mm 3 mps 755 mmHg 81%
    22:00 +26°C° 0 mm 2 mps 755 mmHg 81%
    23:00 +26°C° 0 mm 2 mps 755 mmHg 82%

    25 November, Monday

    Time Temperature Precipitation Wind Pressure Humidity
    00:00 +26°C° 0 mm 2 mps 754 mmHg 83%
    01:00 +25°C° 0 mm 2 mps 754 mmHg 83%
    02:00 +25°C° 0 mm 2 mps 753 mmHg 83%
    03:00 +25°C° 0 mm 2 mps 753 mmHg 83%
    04:00 +25°C° 0 mm 2 mps 753 mmHg 84%
    05:00 +25°C° 0 mm 2 mps 753 mmHg 84%
    06:00 +25°C° 0 mm 2 mps 753 mmHg 85%
    07:00 +26°C° 0 mm 2 mps 754 mmHg 79%
    08:00 +28°C° 0 mm 2 mps 754 mmHg 73%
    09:00 +30°C° 0 mm 1 mps 754 mmHg 67%
    10:00 +31°C° 0 mm 1 mps 754 mmHg 62%
    11:00 +33°C° 0 mm 1 mps 753 mmHg 56%
    12:00 +34°C° 0 mm 1 mps 753 mmHg 51%
    13:00 +35°C° 0 mm 2 mps 752 mmHg 54%
    14:00 +34°C° 0 mm 2 mps 751 mmHg 57%
    15:00 +34°C° 0 mm 2 mps 751 mmHg 59%
    16:00 +31°C° 0 mm 2 mps 751 mmHg 68%
    17:00 +29°C° 0 mm 1 mps 752 mmHg 77%
    18:00 +27°C° 0 mm 1 mps 752 mmHg 86%
    19:00 +26°C° 0 mm 1 mps 752 mmHg 88%
    20:00 +24°C° 0 mm 0 mps 753 mmHg 89%
    21:00 +24°C° 0 mm 0 mps 753 mmHg 90%
    22:00 +24°C° 0 mm 0 mps 753 mmHg 90%
    23:00 +23°C° 0 mm 0 mps 753 mmHg 90%

    26 November, Tuesday

    Time Temperature Precipitation Wind Pressure Humidity
    00:00 +25°C° 0 mm 1 mps 753 mmHg 90%
    01:00 +25°C° 0 mm 1 mps 753 mmHg 90%
    02:00 +25°C° 0 mm 1 mps 753 mmHg 89%
    03:00 +25°C° 0 mm 1 mps 752 mmHg 89%
    04:00 +25°C° 0 mm 1 mps 753 mmHg 89%
    05:00 +24°C° 0 mm 1 mps 753 mmHg 88%
    06:00 +24°C° 0 mm 1 mps 753 mmHg 88%
    07:00 +26°C° 0 mm 1 mps 753 mmHg 79%
    08:00 +29°C° 0 mm 1 mps 754 mmHg 71%
    09:00 +29°C° 0 mm 0 mps 754 mmHg 63%
    10:00 +32°C° 0 mm 1 mps 753 mmHg 59%
    11:00 +34°C° 0 mm 2 mps 753 mmHg 56%
    12:00 +35°C° 0 mm 2 mps 753 mmHg 52%
    13:00 +34°C° 0 mm 2 mps 752 mmHg 55%
    14:00 +34°C° 0 mm 2 mps 752 mmHg 58%
    15:00 +32°C° 0 mm 2 mps 751 mmHg 60%
    16:00 +30°C° 0 mm 2 mps 751 mmHg 69%
    17:00 +28°C° 0 mm 1 mps 752 mmHg 78%
    18:00 +24°C° 0 mm 0 mps 752 mmHg 87%
    19:00 +24°C° 0 mm 0 mps 753 mmHg 88%
    20:00 +24°C° 0 mm 0 mps 753 mmHg 88%
    21:00 +25°C° 0 mm 1 mps 754 mmHg 88%
    22:00 +25°C° 0 mm 1 mps 754 mmHg 87%
    23:00 +25°C° 0 mm 1 mps 754 mmHg 86%

    27 November, Wednesday

    Time Temperature Precipitation Wind Pressure Humidity
    00:00 +25°C° 0 mm 1 mps 754 mmHg 84%
    01:00 +25°C° 0 mm 1 mps 753 mmHg 83%
    02:00 +25°C° 0 mm 1 mps 753 mmHg 82%
    03:00 +25°C° 0 mm 1 mps 753 mmHg 81%
    04:00 +25°C° 0 mm 1 mps 753 mmHg 79%
    05:00 +25°C° 0 mm 1 mps 754 mmHg 77%
    06:00 +25°C° 0 mm 1 mps 754 mmHg 74%
    07:00 +27°C° 0 mm 1 mps 755 mmHg 68%
    08:00 +29°C° 0 mm 1 mps 755 mmHg 61%
    09:00 +32°C° 0 mm 1 mps 756 mmHg 54%
    10:00 +34°C° 0 mm 2 mps 755 mmHg 51%
    11:00 +35°C° 0 mm 2 mps 755 mmHg 48%
    12:00 +37°C° 0 mm 2 mps 754 mmHg 45%
    13:00 +36°C° 0 mm 2 mps 754 mmHg 48%
    14:00 +36°C° 0 mm 2 mps 753 mmHg 51%
    15:00 +35°C° 0 mm 2 mps 753 mmHg 53%
    16:00 +32°C° 0 mm 2 mps 753 mmHg 63%
    17:00 +30°C° 0 mm 1 mps 753 mmHg 73%
    18:00 +28°C° 0 mm 1 mps 753 mmHg 83%
    19:00 +28°C° 0 mm 1 mps 754 mmHg 85%
    20:00 +28°C° 0 mm 1 mps 754 mmHg 86%
    21:00 +27°C° 0 mm 1 mps 755 mmHg 87%
    22:00 +27°C° 0 mm 1 mps 755 mmHg 88%
    23:00 +27°C° 0 mm 1 mps 755 mmHg 88%
    Show more